,,,PA_Meas_PMT16A,,PR_Meas_QMR101_102,,RH_Meas_QMH101,,SR_Meas_QMS101,,TA_Meas_QMH101,,GenWind,,GenWind,
date,time,status,PA,status,PR,status,RH,status,SR,status,TA,status,DirAvg,status,SpdAvg,
2010-01-10, 00:00:04,VALID,1000.31,VALID,0,VALID,91.4181,VALID,0,VALID,23.9939,VALID,66,VALID,0,
2010-01-10, 00:01:04,VALID,1000.34,VALID,0,VALID,91.4334,VALID,0,VALID,23.9939,VALID,91,VALID,0,
2010-01-10, 00:02:04,VALID,1000.34,VALID,0,VALID,91.4028,VALID,0,VALID,23.9939,VALID,91,VALID,0,
2010-01-10, 00:03:04,VALID,1000.35,VALID,0,VALID,91.441,VALID,0,VALID,23.9549,VALID,78,VALID,0,
2010-01-10, 00:04:04,VALID,1000.35,VALID,0,VALID,91.4868,VALID,0,VALID,23.9531,VALID,78,VALID,0,
2010-01-10, 00:05:04,VALID,1000.36,VALID,0,VALID,91.4028,VALID,0,VALID,23.9549,VALID,78,VALID,0,
2010-01-10, 00:06:04,VALID,1000.35,VALID,0,VALID,91.3647,VALID,0,VALID,23.9354,VALID,78,VALID,0,
2010-01-10, 00:07:04,VALID,1000.32,VALID,0,VALID,91.3342,VALID,0,VALID,23.9354,VALID,71,VALID,0,
2010-01-10, 00:08:04,VALID,1000.33,VALID,0,VALID,91.3189,VALID,0,VALID,23.9159,VALID,69,VALID,0,
2010-01-10, 00:09:04,VALID,1000.31,VALID,0,VALID,91.3113,VALID,0,VALID,23.914,VALID,62,VALID,0,
2010-01-10, 00:10:04,VALID,1000.33,VALID,0,VALID,91.2426,VALID,0,VALID,23.9159,VALID,54,VALID,0,
2010-01-10, 00:11:04,VALID,1000.28,VALID,0,VALID,91.2579,VALID,0,VALID,23.9549,VALID,54,VALID,0,
2010-01-10, 00:12:04,VALID,1000.27,VALID,0,VALID,91.1053,VALID,0,VALID,23.9336,VALID,50,VALID,0,
2010-01-10, 00:13:04,VALID,1000.24,VALID,0,VALID,91.0061,VALID,0,VALID,23.914,VALID,49,VALID,0,
2010-01-10, 00:14:04,VALID,1000.24,VALID,0,VALID,91.0671,VALID,0,VALID,23.9159,VALID,50,VALID,0,
2010-01-10, 00:15:04,VALID,1000.25,VALID,0,VALID,91.0748,VALID,0,VALID,23.8945,VALID,50,VALID,0,
2010-01-10, 00:16:04,VALID,1000.23,VALID,0,VALID,91.1816,VALID,0,VALID,23.8945,VALID,50,VALID,0,
2010-01-10, 00:17:04,VALID,1000.23,VALID,0,VALID,91.2274,VALID,0,VALID,23.9159,VALID,50,VALID,0,
2010-01-10, 00:18:04,VALID,1000.24,VALID,0,VALID,91.2655,VALID,0,VALID,23.8945,VALID,50,VALID,0,
2010-01-10, 00:19:04,VALID,1000.23,VALID,0,VALID,91.3494,VALID,0,VALID,23.9159,VALID,50,VALID,0,
2010-01-10, 00:20:04,VALID,1000.19,VALID,0,VALID,91.38,VALID,0,VALID,23.9354,VALID,96,VALID,0.075,
2010-01-10, 00:21:04,VALID,1000.21,VALID,0,VALID,91.296,VALID,0,VALID,23.9549,VALID,113,VALID,0,
2010-01-10, 00:22:04,VALID,1000.21,VALID,0,VALID,91.2655,VALID,0,VALID,23.9531,VALID,114,VALID,0,
2010-01-10, 00:23:04,VALID,1000.19,VALID,0,VALID,91.1816,VALID,0,VALID,23.9531,VALID,114,VALID,0,
2010-01-10, 00:24:04,VALID,1000.22,VALID,0,VALID,91.1587,VALID,0,VALID,23.9939,VALID,114,VALID,0,
2010-01-10, 00:25:04,VALID,1000.19,VALID,0,VALID,91.2503,VALID,0,VALID,23.9513,VALID,114,VALID,0,
2010-01-10, 00:26:04,VALID,1000.19,VALID,0,VALID,91.3342,VALID,0,VALID,23.9726,VALID,113,VALID,0,
2010-01-10, 00:27:04,VALID,1000.18,VALID,0,VALID,91.3571,VALID,0,VALID,23.9939,VALID,109,VALID,0,
2010-01-10, 00:28:04,VALID,1000.12,VALID,0,VALID,91.38,VALID,0,VALID,23.9939,VALID,108,VALID,0,
2010-01-10, 00:29:04,VALID,1000.12,VALID,0,VALID,91.3723,VALID,0,VALID,23.9939,VALID,107,VALID,0,
2010-01-10, 00:30:04,VALID,1000.11,VALID,0,VALID,91.4181,VALID,0,VALID,23.9744,VALID,107,VALID,0,
2010-01-10, 00:31:04,VALID,1000.09,VALID,0,VALID,91.3876,VALID,0,VALID,23.9744,VALID,107,VALID,0,
2010-01-10, 00:32:04,VALID,1000.11,VALID,0,VALID,91.3876,VALID,0,VALID,23.9744,VALID,99,VALID,0,
2010-01-10, 00:33:04,VALID,1000.11,VALID,0,VALID,91.1511,VALID,0,VALID,23.9549,VALID,83,VALID,0,
2010-01-10, 00:34:04,VALID,1000.13,VALID,0,VALID,91.0748,VALID,0,VALID,23.9549,VALID,83,VALID,0,
2010-01-10, 00:35:04,VALID,1000.11,VALID,0,VALID,90.9832,VALID,0,VALID,23.9549,VALID,83,VALID,0,
2010-01-10, 00:36:04,VALID,1000.08,VALID,0,VALID,90.8917,VALID,0,VALID,23.914,VALID,83,VALID,0,
2010-01-10, 00:37:04,VALID,1000.09,VALID,0,VALID,90.8993,VALID,0,VALID,23.9159,VALID,83,VALID,0,
2010-01-10, 00:38:04,VALID,1000.09,VALID,0,VALID,90.9222,VALID,0,VALID,23.9159,VALID,83,VALID,0,
2010-01-10, 00:39:04,VALID,1000.06,VALID,0,VALID,90.9374,VALID,0,VALID,23.9354,VALID,83,VALID,0,
2010-01-10, 00:40:04,VALID,1000.06,VALID,0,VALID,91.0977,VALID,0,VALID,23.9354,VALID,77,VALID,0,
2010-01-10, 00:41:04,VALID,1000.08,VALID,0,VALID,90.9985,VALID,0,VALID,23.914,VALID,69,VALID,0,
2010-01-10, 00:42:04,VALID,1000.05,VALID,0,VALID,90.7925,VALID,0,VALID,23.914,VALID,69,VALID,0,
2010-01-10, 00:43:04,VALID,1000.04,VALID,0,VALID,90.9146,VALID,0,VALID,23.9354,VALID,69,VALID,0,
2010-01-10, 00:44:04,VALID,1000.06,VALID,0,VALID,90.9451,VALID,0,VALID,23.9159,VALID,69,VALID,0,
2010-01-10, 00:45:04,VALID,1000.02,VALID,0,VALID,91.0824,VALID,0,VALID,23.914,VALID,69,VALID,0,
2010-01-10, 00:46:04,VALID,999.996,VALID,0,VALID,91.1968,VALID,0,VALID,23.8945,VALID,69,VALID,0,
2010-01-10, 00:47:04,VALID,999.968,VALID,0,VALID,91.235,VALID,0,VALID,23.8945,VALID,69,VALID,0,
2010-01-10, 00:48:04,VALID,999.947,VALID,0,VALID,91.3418,VALID,0,VALID,23.9159,VALID,70,VALID,0,
2010-01-10, 00:49:04,VALID,999.98,VALID,0,VALID,91.4028,VALID,0,VALID,23.914,VALID,75,VALID,0,
2010-01-10, 00:50:04,VALID,999.978,VALID,0,VALID,91.38,VALID,0,VALID,23.9354,VALID,75,VALID,0,
2010-01-10, 00:51:04,VALID,999.949,VALID,0,VALID,91.3266,VALID,0,VALID,23.9354,VALID,75,VALID,0,
2010-01-10, 00:52:04,VALID,999.96,VALID,0,VALID,91.3189,VALID,0,VALID,23.914,VALID,75,VALID,0,
2010-01-10, 00:53:04,VALID,999.944,VALID,0,VALID,91.3571,VALID,0,VALID,23.9549,VALID,75,VALID,0,
2010-01-10, 00:54:04,VALID,999.977,VALID,0,VALID,91.441,VALID,0,VALID,23.9744,VALID,69,VALID,0,
2010-01-10, 00:55:04,VALID,999.934,VALID,0,VALID,91.4715,VALID,0,VALID,24.0134,VALID,59,VALID,0,
2010-01-10, 00:56:04,VALID,999.947,VALID,0,VALID,91.4028,VALID,0,VALID,24.0134,VALID,59,VALID,0,
2010-01-10, 00:57:04,VALID,1000.01,VALID,0,VALID,91.3723,VALID,0,VALID,24.0525,VALID,45,VALID,0,
2010-01-10, 00:58:04,VALID,999.975,VALID,0,VALID,91.3952,VALID,0,VALID,24.0525,VALID,277,VALID,0.00703125,
2010-01-10, 00:59:04,VALID,999.996,VALID,0,VALID,91.4181,VALID,0,VALID,24.111,VALID,260,VALID,0.625391,
2010-01-10, 01:00:04,VALID,999.964,VALID,0,VALID,91.1968,VALID,0,VALID,24.1305,VALID,261,VALID,0,
2010-01-10, 01:01:04,VALID,999.936,VALID,0,VALID,90.9832,VALID,0,VALID,24.15,VALID,261,VALID,0,
2010-01-10, 01:02:04,VALID,999.952,VALID,0,VALID,91.0137,VALID,0,VALID,24.1677,VALID,267,VALID,0.383984,
2010-01-10, 01:03:04,VALID,999.972,VALID,0,VALID,90.9374,VALID,0,VALID,24.1891,VALID,287,VALID,1.05547,
2010-01-10, 01:04:04,VALID,1000,VALID,0,VALID,90.9603,VALID,0,VALID,24.1677,VALID,280,VALID,0.767187,
2010-01-10, 01:05:04,VALID,999.936,VALID,0,VALID,90.2279,VALID,0,VALID,24.2263,VALID,303,VALID,0.974219,
2010-01-10, 01:06:04,VALID,999.887,VALID,0,VALID,88.824,VALID,0,VALID,24.4604,VALID,280,VALID,1.59492,
2010-01-10, 01:07:04,VALID,999.835,VALID,0,VALID,87.5346,VALID,0,VALID,24.7142,VALID,280,VALID,1.89688,
2010-01-10, 01:08:04,VALID,999.828,VALID,0,VALID,86.6496,VALID,0,VALID,24.8508,VALID,251,VALID,1.14141,
2010-01-10, 01:09:04,VALID,999.824,VALID,0,VALID,86.1918,VALID,0,VALID,24.9698,VALID,244,VALID,1.26445,
2010-01-10, 01:10:04,VALID,999.829,VALID,0,VALID,86.23,VALID,0,VALID,24.9289,VALID,234,VALID,1.61914,
2010-01-10, 01:11:04,VALID,999.786,VALID,0,VALID,86.6038,VALID,0,VALID,24.8508,VALID,238,VALID,1.18867,
2010-01-10, 01:12:04,VALID,999.823,VALID,0,VALID,86.9319,VALID,0,VALID,24.7727,VALID,220,VALID,1.01523,
2010-01-10, 01:13:04,VALID,999.809,VALID,0,VALID,87.1532,VALID,0,VALID,24.7356,VALID,237,VALID,1.06094,
2010-01-10, 01:14:04,VALID,999.809,VALID,0,VALID,87.5804,VALID,0,VALID,24.6575,VALID,214,VALID,0.608984,
2010-01-10, 01:15:04,VALID,999.799,VALID,0,VALID,87.878,VALID,0,VALID,24.5989,VALID,218,VALID,0.234375,
2010-01-10, 01:16:04,VALID,999.81,VALID,0,VALID,88.0534,VALID,0,VALID,24.5599,VALID,228,VALID,0.184766,
2010-01-10, 01:17:04,VALID,999.815,VALID,0,VALID,88.2442,VALID,0,VALID,24.4995,VALID,228,VALID,0.15625,
2010-01-10, 01:18:04,VALID,999.818,VALID,0,VALID,88.3434,VALID,0,VALID,24.5013,VALID,265,VALID,0.378906,
2010-01-10, 01:19:04,VALID,999.78,VALID,0,VALID,88.4807,VALID,0,VALID,24.4623,VALID,266,VALID,0.164453,
2010-01-10, 01:20:04,VALID,999.739,VALID,0,VALID,88.618,VALID,0,VALID,24.4233,VALID,266,VALID,0,
2010-01-10, 01:21:04,VALID,999.742,VALID,0,VALID,88.6867,VALID,0,VALID,24.4037,VALID,266,VALID,0,
2010-01-10, 01:22:04,VALID,999.727,VALID,0,VALID,88.824,VALID,0,VALID,24.3842,VALID,266,VALID,0,
2010-01-10, 01:23:04,VALID,999.7,VALID,0,VALID,88.969,VALID,0,VALID,24.3647,VALID,266,VALID,0,
2010-01-10, 01:24:04,VALID,999.724,VALID,0,VALID,89.1292,VALID,0,VALID,24.3452,VALID,271,VALID,0.009375,
2010-01-10, 01:25:04,VALID,999.787,VALID,0,VALID,89.3276,VALID,0,VALID,24.3452,VALID,323,VALID,0.801953,
2010-01-10, 01:26:04,VALID,999.775,VALID,0,VALID,89.526,VALID,0,VALID,24.3452,VALID,338,VALID,1.23203,
2010-01-10, 01:27:04,VALID,999.784,VALID,0,VALID,89.9227,VALID,0,VALID,24.3647,VALID,352,VALID,1.31172,
2010-01-10, 01:28:04,VALID,999.758,VALID,0,VALID,90.0982,VALID,0,VALID,24.3647,VALID,342,VALID,1.22695,
2010-01-10, 01:29:04,VALID,999.738,VALID,0,VALID,89.793,VALID,0,VALID,24.3257,VALID,356,VALID,2.23672,
2010-01-10, 01:30:04,VALID,999.708,VALID,0,VALID,89.8846,VALID,0,VALID,24.3257,VALID,357,VALID,1.47773,
2010-01-10, 01:31:04,VALID,999.689,VALID,0,VALID,89.8693,VALID,0,VALID,24.3062,VALID,356,VALID,1.13516,
2010-01-10, 01:32:04,VALID,999.681,VALID,0,VALID,89.8846,VALID,0,VALID,24.3062,VALID,347,VALID,0.262891,
2010-01-10, 01:33:04,VALID,999.677,VALID,0,VALID,90.0143,VALID,0,VALID,24.3062,VALID,337,VALID,0.0964844,
2010-01-10, 01:34:04,VALID,999.691,VALID,0,VALID,89.9303,VALID,0,VALID,24.3062,VALID,337,VALID,0.324609,
2010-01-10, 01:35:04,VALID,999.67,VALID,0,VALID,89.9837,VALID,0,VALID,24.3062,VALID,337,VALID,0.0160156,
2010-01-10, 01:36:04,VALID,999.651,VALID,0,VALID,90.0677,VALID,0,VALID,24.2866,VALID,337,VALID,0.0691406,
2010-01-10, 01:37:04,VALID,999.621,VALID,0,VALID,90.2355,VALID,0,VALID,24.2866,VALID,337,VALID,0,
2010-01-10, 01:38:04,VALID,999.612,VALID,0,VALID,90.3423,VALID,0,VALID,24.2671,VALID,337,VALID,0,
2010-01-10, 01:39:04,VALID,999.58,VALID,0,VALID,90.4568,VALID,0,VALID,24.2476,VALID,337,VALID,0.167187,
2010-01-10, 01:40:04,VALID,999.543,VALID,0,VALID,90.5178,VALID,0,VALID,24.2476,VALID,337,VALID,0.456641,
2010-01-10, 01:41:04,VALID,999.524,VALID,0,VALID,90.6323,VALID,0,VALID,24.2263,VALID,337,VALID,0.341016,
2010-01-10, 01:42:04,VALID,999.519,VALID,0,VALID,90.7238,VALID,0,VALID,24.2281,VALID,337,VALID,0.214062,
2010-01-10, 01:43:04,VALID,999.505,VALID,0,VALID,90.7543,VALID,0,VALID,24.1891,VALID,337,VALID,0,
2010-01-10, 01:44:04,VALID,999.483,VALID,0,VALID,90.8611,VALID,0,VALID,24.1891,VALID,337,VALID,0,
2010-01-10, 01:45:04,VALID,999.474,VALID,0,VALID,90.8917,VALID,0,VALID,24.1677,VALID,337,VALID,0,
2010-01-10, 01:46:04,VALID,999.458,VALID,0,VALID,90.9298,VALID,0,VALID,24.1891,VALID,337,VALID,0,
2010-01-10, 01:47:04,VALID,999.411,VALID,0,VALID,90.8917,VALID,0,VALID,24.1696,VALID,337,VALID,0,
2010-01-10, 01:48:04,VALID,999.385,VALID,0,VALID,90.8459,VALID,0,VALID,24.1696,VALID,337,VALID,0,
2010-01-10, 01:49:04,VALID,999.358,VALID,0,VALID,90.9909,VALID,0,VALID,24.1696,VALID,53,VALID,0,
2010-01-10, 01:50:04,VALID,999.334,VALID,0,VALID,90.9222,VALID,0,VALID,24.1891,VALID,76,VALID,0,
2010-01-10, 01:51:04,VALID,999.318,VALID,0,VALID,91.0824,VALID,0,VALID,24.1872,VALID,82,VALID,0.973828,
2010-01-10, 01:52:04,VALID,999.323,VALID,0,VALID,91.1053,VALID,0,VALID,24.2086,VALID,83,VALID,1.04297,
2010-01-10, 01:53:04,VALID,999.283,VALID,0,VALID,91.0748,VALID,0.112286,VALID,24.2086,VALID,85,VALID,0.960547,
2010-01-10, 01:54:04,VALID,999.296,VALID,0,VALID,91.1511,VALID,0,VALID,24.2067,VALID,87,VALID,0.961719,
2010-01-10, 01:55:04,VALID,999.269,VALID,0,VALID,91.2197,VALID,0,VALID,24.2476,VALID,96,VALID,0.797656,
2010-01-10, 01:56:04,VALID,999.261,VALID,0,VALID,91.2808,VALID,0,VALID,24.2671,VALID,101,VALID,0.540625,
2010-01-10, 01:57:04,VALID,999.25,VALID,0,VALID,91.4639,VALID,0,VALID,24.2653,VALID,88,VALID,0.749609,
2010-01-10, 01:58:04,VALID,999.26,VALID,0,VALID,91.4486,VALID,0,VALID,24.2458,VALID,106,VALID,1.08242,
2010-01-10, 01:59:04,VALID,999.284,VALID,0,VALID,91.5173,VALID,0,VALID,24.2458,VALID,110,VALID,0.835547,
2010-01-10, 02:00:04,VALID,999.273,VALID,0,VALID,91.6394,VALID,0.112286,VALID,24.2263,VALID,116,VALID,0.873828,
2010-01-10, 02:01:04,VALID,999.289,VALID,0,VALID,91.7691,VALID,0.112286,VALID,24.2067,VALID,128,VALID,0.892969,
2010-01-10, 02:02:04,VALID,999.28,VALID,0,VALID,91.8301,VALID,0,VALID,24.2067,VALID,121,VALID,1.35547,
2010-01-10, 02:03:04,VALID,999.31,VALID,0,VALID,91.8148,VALID,0,VALID,24.2086,VALID,118,VALID,1.11797,
2010-01-10, 02:04:04,VALID,999.262,VALID,0,VALID,91.9674,VALID,0,VALID,24.1872,VALID,122,VALID,0.857813,
2010-01-10, 02:05:04,VALID,999.257,VALID,0,VALID,92.0209,VALID,0,VALID,24.2281,VALID,135,VALID,1.01914,
2010-01-10, 02:06:04,VALID,999.233,VALID,0,VALID,91.9827,VALID,0,VALID,24.2086,VALID,137,VALID,1.05234,
2010-01-10, 02:07:04,VALID,999.208,VALID,0,VALID,92.0209,VALID,0,VALID,24.2086,VALID,132,VALID,0.470313,
2010-01-10, 02:08:04,VALID,999.218,VALID,0,VALID,91.9064,VALID,0,VALID,24.1872,VALID,126,VALID,0.788281,
2010-01-10, 02:09:04,VALID,999.199,VALID,0,VALID,91.8988,VALID,0,VALID,24.2086,VALID,132,VALID,0.734766,
2010-01-10, 02:10:04,VALID,999.224,VALID,0,VALID,91.9217,VALID,0,VALID,24.2067,VALID,134,VALID,0.705469,
2010-01-10, 02:11:04,VALID,999.225,VALID,0,VALID,91.9445,VALID,0,VALID,24.2067,VALID,126,VALID,0.794141,
2010-01-10, 02:12:04,VALID,999.234,VALID,0,VALID,91.8759,VALID,0,VALID,24.2067,VALID,127,VALID,0.868359,
2010-01-10, 02:13:04,VALID,999.273,VALID,0,VALID,91.9064,VALID,0,VALID,24.2263,VALID,127,VALID,0.279297,
2010-01-10, 02:14:04,VALID,999.25,VALID,0,VALID,91.9674,VALID,0,VALID,24.2476,VALID,110,VALID,0.399609,
2010-01-10, 02:15:04,VALID,999.267,VALID,0,VALID,91.9903,VALID,0,VALID,24.2263,VALID,110,VALID,0.0394531,
2010-01-10, 02:16:04,VALID,999.235,VALID,0,VALID,91.9217,VALID,0,VALID,24.2476,VALID,110,VALID,0.205469,
2010-01-10, 02:17:04,VALID,999.271,VALID,0,VALID,91.9293,VALID,0,VALID,24.2281,VALID,110,VALID,0.221094,
2010-01-10, 02:18:04,VALID,999.238,VALID,0,VALID,91.8988,VALID,0,VALID,24.2476,VALID,25,VALID,0.387109,
2010-01-10, 02:19:04,VALID,999.252,VALID,0,VALID,91.8835,VALID,0,VALID,24.2281,VALID,7,VALID,0.398438,
2010-01-10, 02:20:04,VALID,999.283,VALID,0,VALID,91.9369,VALID,0,VALID,24.2263,VALID,327,VALID,0.650391,
2010-01-10, 02:21:04,VALID,999.298,VALID,0,VALID,91.9369,VALID,0.112286,VALID,24.2458,VALID,318,VALID,0.959375,
2010-01-10, 02:22:04,VALID,999.293,VALID,0,VALID,92.0819,VALID,0,VALID,24.2866,VALID,308,VALID,0.902734,
2010-01-10, 02:23:04,VALID,999.34,VALID,0,VALID,92.0971,VALID,0,VALID,24.3062,VALID,320,VALID,1.27266,
2010-01-10, 02:24:04,VALID,999.328,VALID,0.5,VALID,91.9751,VALID,0,VALID,24.2476,VALID,339,VALID,1.19414,
2010-01-10, 02:25:04,VALID,999.345,VALID,0,VALID,91.9522,VALID,0,VALID,24.1677,VALID,353,VALID,1.22461,
2010-01-10, 02:26:04,VALID,999.307,VALID,1,VALID,91.9903,VALID,0,VALID,24.1092,VALID,13,VALID,0.740625,
2010-01-10, 02:27:04,VALID,999.283,VALID,1,VALID,92.0514,VALID,0,VALID,24.0701,VALID,57,VALID,0.638281,
2010-01-10, 02:28:04,VALID,999.311,VALID,0,VALID,92.1429,VALID,0.112286,VALID,24.072,VALID,69,VALID,0.472266,
2010-01-10, 02:29:04,VALID,999.344,VALID,0.5,VALID,92.2192,VALID,0,VALID,24.0329,VALID,67,VALID,0.205078,
2010-01-10, 02:30:04,VALID,999.363,VALID,0,VALID,92.2803,VALID,0,VALID,23.9939,VALID,344,VALID,0.744922,
2010-01-10, 02:31:04,VALID,999.369,VALID,0.5,VALID,92.4786,VALID,0.112286,VALID,23.9921,VALID,295,VALID,1.01133,
2010-01-10, 02:32:04,VALID,999.383,VALID,1,VALID,92.6083,VALID,0,VALID,24.0116,VALID,256,VALID,0.921875,
2010-01-10, 02:33:04,VALID,999.435,VALID,1,VALID,92.7457,VALID,0,VALID,23.9726,VALID,227,VALID,0.624219,
2010-01-10, 02:34:04,VALID,999.451,VALID,1,VALID,92.8448,VALID,0,VALID,23.9726,VALID,263,VALID,0.815234,
2010-01-10, 02:35:04,VALID,999.45,VALID,0.5,VALID,92.9822,VALID,0,VALID,23.9549,VALID,260,VALID,0.705078,
2010-01-10, 02:36:04,VALID,999.486,VALID,1,VALID,93.089,VALID,0,VALID,23.9336,VALID,311,VALID,0.738281,
2010-01-10, 02:37:04,VALID,999.502,VALID,1,VALID,93.1653,VALID,0,VALID,23.9354,VALID,321,VALID,0.592969,
2010-01-10, 02:38:04,VALID,999.564,VALID,0.5,VALID,93.2187,VALID,0,VALID,23.9159,VALID,272,VALID,0.776172,
2010-01-10, 02:39:04,VALID,999.579,VALID,0.5,VALID,93.1958,VALID,0,VALID,23.8573,VALID,294,VALID,0.986719,
2010-01-10, 02:40:04,VALID,999.574,VALID,0.5,VALID,93.2416,VALID,0,VALID,23.7988,VALID,290,VALID,0.733203,
2010-01-10, 02:41:04,VALID,999.556,VALID,0.5,VALID,93.2416,VALID,0,VALID,23.7402,VALID,291,VALID,0.650391,
2010-01-10, 02:42:04,VALID,999.585,VALID,0.5,VALID,93.2797,VALID,0.112286,VALID,23.6994,VALID,320,VALID,1.225,
2010-01-10, 02:43:04,VALID,999.541,VALID,1,VALID,93.3179,VALID,0,VALID,23.7012,VALID,349,VALID,1.08711,
2010-01-10, 02:44:04,VALID,999.529,VALID,1,VALID,93.2492,VALID,0,VALID,23.6036,VALID,2,VALID,1.06133,
2010-01-10, 02:45:04,VALID,999.488,VALID,0.5,VALID,92.5702,VALID,0,VALID,23.2915,VALID,349,VALID,1.44727,
2010-01-10, 02:46:04,VALID,999.466,VALID,0,VALID,92.2955,VALID,0,VALID,23.1354,VALID,353,VALID,1.42461,
2010-01-10, 02:47:04,VALID,999.455,VALID,0.5,VALID,91.9751,VALID,0,VALID,22.9598,VALID,356,VALID,1.4625,
2010-01-10, 02:48:04,VALID,999.493,VALID,0.5,VALID,91.998,VALID,0,VALID,22.8427,VALID,2,VALID,1.34922,
2010-01-10, 02:49:04,VALID,999.516,VALID,0,VALID,92.2421,VALID,0,VALID,22.7647,VALID,350,VALID,1.02813,
2010-01-10, 02:50:04,VALID,999.501,VALID,0.5,VALID,92.4405,VALID,0,VALID,22.6867,VALID,349,VALID,0.348437,
2010-01-10, 02:51:04,VALID,999.453,VALID,0.5,VALID,92.6388,VALID,0,VALID,22.6282,VALID,349,VALID,0,
2010-01-10, 02:52:04,VALID,999.454,VALID,0,VALID,92.7304,VALID,0,VALID,22.5696,VALID,349,VALID,0.373047,
2010-01-10, 02:53:04,VALID,999.474,VALID,0.5,VALID,92.822,VALID,0,VALID,22.5306,VALID,349,VALID,0.3125,
2010-01-10, 02:54:04,VALID,999.502,VALID,0,VALID,92.8677,VALID,0,VALID,22.5111,VALID,358,VALID,0.569141,
2010-01-10, 02:55:04,VALID,999.517,VALID,0.5,VALID,92.8067,VALID,0,VALID,22.4721,VALID,26,VALID,0.855078,
2010-01-10, 02:56:04,VALID,999.541,VALID,0,VALID,92.5854,VALID,0,VALID,22.4136,VALID,26,VALID,0.809375,
2010-01-10, 02:57:04,VALID,999.48,VALID,0,VALID,92.5702,VALID,0,VALID,22.3941,VALID,30,VALID,0.799219,
2010-01-10, 02:58:04,VALID,999.522,VALID,0.5,VALID,92.6465,VALID,0,VALID,22.4136,VALID,30,VALID,0.946875,
2010-01-10, 02:59:04,VALID,999.496,VALID,0,VALID,92.7609,VALID,0,VALID,22.4331,VALID,30,VALID,0.846094,
2010-01-10, 03:00:04,VALID,999.499,VALID,0,VALID,92.944,VALID,0,VALID,22.4331,VALID,30,VALID,0.534375,
2010-01-10, 03:01:04,VALID,999.496,VALID,0,VALID,93.0814,VALID,0,VALID,22.4331,VALID,30,VALID,0,
2010-01-10, 03:02:04,VALID,999.521,VALID,0,VALID,93.1958,VALID,0,VALID,22.4526,VALID,30,VALID,0,
2010-01-10, 03:03:04,VALID,999.534,VALID,0.5,VALID,93.2645,VALID,0,VALID,22.4526,VALID,30,VALID,0,
2010-01-10, 03:04:04,VALID,999.56,VALID,0,VALID,93.3866,VALID,0,VALID,22.4314,VALID,30,VALID,0,
2010-01-10, 03:05:04,VALID,999.568,VALID,0,VALID,93.4934,VALID,0,VALID,22.4916,VALID,317,VALID,0,
2010-01-10, 03:06:04,VALID,999.608,VALID,0,VALID,93.5849,VALID,0,VALID,22.5289,VALID,305,VALID,0,
2010-01-10, 03:07:04,VALID,999.609,VALID,0.5,VALID,93.646,VALID,0,VALID,22.5892,VALID,296,VALID,0.0195313,
2010-01-10, 03:08:04,VALID,999.642,VALID,0,VALID,93.6994,VALID,0,VALID,22.6087,VALID,292,VALID,0,
2010-01-10, 03:09:04,VALID,999.686,VALID,0.5,VALID,93.7833,VALID,0,VALID,22.6672,VALID,295,VALID,0,
2010-01-10, 03:10:04,VALID,999.675,VALID,0.5,VALID,93.8291,VALID,0,VALID,22.7257,VALID,293,VALID,0,
2010-01-10, 03:11:04,VALID,999.654,VALID,0.5,VALID,93.8443,VALID,0,VALID,22.7842,VALID,285,VALID,0,
2010-01-10, 03:12:04,VALID,999.636,VALID,0.5,VALID,93.913,VALID,0.112286,VALID,22.8623,VALID,259,VALID,0.468359,
2010-01-10, 03:13:04,VALID,999.607,VALID,0,VALID,93.9893,VALID,0,VALID,23.0573,VALID,244,VALID,0.5375,
2010-01-10, 03:14:04,VALID,999.613,VALID,0,VALID,93.9893,VALID,0,VALID,23.1354,VALID,272,VALID,0.428906,
2010-01-10, 03:15:04,VALID,999.617,VALID,0,VALID,93.9893,VALID,0,VALID,23.1939,VALID,271,VALID,0.273438,
2010-01-10, 03:16:04,VALID,999.606,VALID,0.5,VALID,93.9893,VALID,0,VALID,23.2329,VALID,238,VALID,0.678125,
2010-01-10, 03:17:04,VALID,999.646,VALID,0,VALID,93.9893,VALID,0,VALID,23.2524,VALID,260,VALID,0.371484,
2010-01-10, 03:18:04,VALID,999.616,VALID,0,VALID,93.974,VALID,0,VALID,23.2719,VALID,242,VALID,0.253906,
2010-01-10, 03:19:04,VALID,999.679,VALID,0,VALID,93.9893,VALID,0,VALID,23.2915,VALID,245,VALID,0.751172,
2010-01-10, 03:20:04,VALID,999.684,VALID,0,VALID,93.9817,VALID,0,VALID,23.3305,VALID,259,VALID,0.314453,
2010-01-10, 03:21:04,VALID,999.694,VALID,0,VALID,93.9893,VALID,0,VALID,23.35,VALID,265,VALID,0.716406,
2010-01-10, 03:22:04,VALID,999.699,VALID,0,VALID,94.0122,VALID,0.112286,VALID,23.3872,VALID,276,VALID,1.13281,
2010-01-10, 03:23:04,VALID,999.711,VALID,0.5,VALID,93.9969,VALID,0,VALID,23.4263,VALID,272,VALID,0.880078,
2010-01-10, 03:24:04,VALID,999.705,VALID,0,VALID,94.0045,VALID,0,VALID,23.4475,VALID,243,VALID,0.430859,
2010-01-10, 03:25:04,VALID,999.707,VALID,0,VALID,93.9969,VALID,0,VALID,23.4458,VALID,287,VALID,0.868359,
2010-01-10, 03:26:04,VALID,999.715,VALID,0.5,VALID,94.0045,VALID,0,VALID,23.4848,VALID,239,VALID,1.39375,
2010-01-10, 03:27:04,VALID,999.735,VALID,0,VALID,94.0045,VALID,0,VALID,23.4848,VALID,273,VALID,0.753125,
2010-01-10, 03:28:04,VALID,999.754,VALID,0.5,VALID,93.9893,VALID,0,VALID,23.5079,VALID,271,VALID,1.06562,
2010-01-10, 03:29:04,VALID,999.774,VALID,0,VALID,93.9893,VALID,0,VALID,23.5079,VALID,308,VALID,0.428125,
2010-01-10, 03:30:04,VALID,999.774,VALID,0.5,VALID,93.9893,VALID,0,VALID,23.5274,VALID,234,VALID,0.769141,
2010-01-10, 03:31:04,VALID,999.779,VALID,0.5,VALID,93.9893,VALID,0,VALID,23.5256,VALID,258,VALID,0.429688,
2010-01-10, 03:32:04,VALID,999.751,VALID,0,VALID,93.974,VALID,0,VALID,23.5469,VALID,213,VALID,0.664844,
2010-01-10, 03:33:04,VALID,999.799,VALID,0,VALID,93.9893,VALID,0,VALID,23.4866,VALID,295,VALID,0.958594,
2010-01-10, 03:34:04,VALID,999.792,VALID,0.5,VALID,93.9664,VALID,0,VALID,23.4884,VALID,316,VALID,1.09805,
2010-01-10, 03:35:04,VALID,999.817,VALID,0.5,VALID,93.9664,VALID,0,VALID,23.4688,VALID,240,VALID,1.26016,
2010-01-10, 03:36:04,VALID,999.815,VALID,0,VALID,93.9435,VALID,0,VALID,23.4103,VALID,259,VALID,1.45938,
2010-01-10, 03:37:04,VALID,999.851,VALID,0.5,VALID,93.9283,VALID,0,VALID,23.35,VALID,252,VALID,1.56602,
2010-01-10, 03:38:04,VALID,999.884,VALID,0,VALID,93.9588,VALID,0,VALID,23.3713,VALID,275,VALID,1.25859,
2010-01-10, 03:39:04,VALID,999.855,VALID,0.5,VALID,93.9435,VALID,0,VALID,23.35,VALID,274,VALID,0.905078,
2010-01-10, 03:40:04,VALID,999.864,VALID,0,VALID,93.9664,VALID,0,VALID,23.35,VALID,302,VALID,1.14648,
2010-01-10, 03:41:04,VALID,999.864,VALID,0.5,VALID,93.9664,VALID,0,VALID,23.3695,VALID,287,VALID,0.289453,
2010-01-10, 03:42:04,VALID,999.836,VALID,0,VALID,93.9664,VALID,0,VALID,23.3695,VALID,269,VALID,0.839063,
2010-01-10, 03:43:04,VALID,999.844,VALID,0.5,VALID,93.9588,VALID,0,VALID,23.3713,VALID,308,VALID,1.53437,
2010-01-10, 03:44:04,VALID,999.79,VALID,0,VALID,93.9511,VALID,0,VALID,23.3518,VALID,304,VALID,1.22852,
2010-01-10, 03:45:04,VALID,999.802,VALID,0.5,VALID,93.9511,VALID,0,VALID,23.311,VALID,270,VALID,0.928516,
2010-01-10, 03:46:04,VALID,999.791,VALID,0,VALID,93.9511,VALID,0,VALID,23.311,VALID,253,VALID,0.658984,
2010-01-10, 03:47:04,VALID,999.792,VALID,0.5,VALID,93.9511,VALID,0,VALID,23.3323,VALID,254,VALID,0.00195313,
2010-01-10, 03:48:04,VALID,999.778,VALID,0.5,VALID,93.9511,VALID,0,VALID,23.311,VALID,238,VALID,0.0125,
2010-01-10, 03:49:04,VALID,999.766,VALID,0,VALID,93.9664,VALID,0,VALID,23.311,VALID,224,VALID,1.09492,